EHI
0 0 0 0 0 0 0 0 0 0 0 0 0 0 0 0 0 0 0 0 0 0 1 2 1 0 0 0 0 0 0 0 0 0 0 1 1 0 0 1 2 2 1
0 0 0 0 0 0 0 0 0 0 0 0 0 0 0 0 0 0 0 0 0 0 1 2 1 1 1 1 1 0 0 0 0 0 0 1 2 1 1 1 2 2 2
0 0 0 0 0 0 0 0 0 0 0 0 0 0 0 0 0 0 0 0 0 0 1 1 1 2 2 2 1 0 0 0 0 0 0 1 2 3 2 1 1 1 1
0 0 0 0 0 0 0 0 0 0 0 0 0 0 0 0 0 0 0 0 0 0 0 0 1 1 1 1 1 0 0 0 0 0 0 0 1 2 1 1 0 1 1
0 0 0 0 0 0 0 0 0 0 0 0 0 0 0 0 0 0 0 0 0 0 0 0 0 0 0 0 0 0 0 1 1 1 0 0 0 0 0 0 1 2 2
0 0 0 0 0 0 0 0 0 0 0 0 0 0 0 0 0 0 0 0 0 0 0 0 0 0 0 0 0 0 0 1 2 1 0 0 0 0 1 1 3 4 4
0 0 0 0 0 0 0 0 0 0 0 0 0 0 0 0 0 0 0 0 0 0 0 0 0 0 0 0 0 0 0 1 2 1 0 0 0 0 1 2 3 4 3
0 0 0 0 0 0 0 0 0 0 0 0 0 0 0 0 0 0 0 0 0 0 0 0 0 0 0 0 0 0 0 1 1 0 0 0 0 0 1 1 1 2 2
0 0 0 0 0 0 0 0 0 0 0 0 0 0 0 0 0 0 0 0 0 0 0 0 0 0 0 0 0 0 0 0 0 0 0 0 0 0 0 0 0 0 1
0 0 0 0 0 0 0 0 0 0 0 0 0 0 0 0 0 0 0 0 0 0 0 0 0 0 0 0 0 0 0 0 0 1 1 1 1 0 0 0 0 0 0
0 0 0 0 0 0 0 0 0 0 0 0 0 0 0 0 0 0 0 0 0 0 0 0 0 0 0 0 0 0 0 0 0 1 2 2 2 1 0 0 0 0 0
0 0 0 0 0 0 0 0 0 0 0 0 0 0 0 0 0 0 0 0 0 0 0 0 0 0 0 0 0 0 0 0 0 1 1 2 2 2 1 0 0 0 0
0 0 0 0 0 0 0 0 0 0 0 0 0 0 0 0 0 0 0 0 0 0 0 0 0 0 0 0 0 0 0 0 0 0 0 1 1 1 1 0 0 0 0
0 0 0 0 0 0 0 0 0 0 0 0 0 0 0 0 0 0 0 0 0 0 0 0 0 0 0 0 0 0 0 0 0 0 0 0 0 0 0 0 0 0 0
0 0 0 0 0 0 0 0 0 0 0 0 0 0 0 0 0 0 0 0 0 0 0 0 0 0 0 0 0 0 0 0 0 0 0 0 0 0 0 0 0 0 0
0 0 0 0 0 0 0 0 0 0 0 0 0 0 0 0 0 0 0 0 0 0 0 0 0 0 0 0 0 0 0 0 0 0 0 0 0 0 0 0 0 0 0
0 0 0 0 0 0 0 0 0 0 0 0 0 0 0 0 0 0 0 0 0 0 0 0 0 0 0 0 0 0 0 0 0 0 0 0 0 0 0 0 0 0 0
0 0 0 0 0 0 0 0 0 0 0 0 0 0 0 0 0 0 0 0 0 0 0 0 0 0 0 0 0 0 0 0 0 0 0 0 0 0 0 0 0 0 0
0 0 0 0 0 0 0 0 0 0 0 0 0 0 0 0 0 0 0 0 0 0 0 0 0 0 0 0 0 0 0 0 0 0 0 0 0 0 0 0 0 0 0
0 0 0 0 0 0 0 0 0 0 0 0 0 0 0 0 0 0 0 0 0 0 0 0 0 0 0 0 0 0 0 0 0 0 0 0 0 0 0 0 0 0 0
0 0 0 0 0 0 0 0 0 0 0 0 0 0 0 0 0 0 0 0 0 0 0 0 0 0 0 0 0 0 0 0 0 0 0 0 0 0 0 0 0 0 0
0 0 0 0 0 0 0 0 0 0 0 0 0 0 0 0 0 0 0 0 0 0 0 0 0 0 0 0 0 0 0 0 0 0 0 0 0 0 0 0 0 0 0
0 0 0 0 0 0 0 0 0 0 0 0 0 0 0 0 0 0 0 0 0 0 0 0 0 0 0 0 0 0 0 0 0 0 0 0 0 0 0 0 0 0 0
0 0 0 0 0 0 0 0 0 0 0 0 0 0 0 0 0 0 0 0 0 0 0 0 0 0 0 0 0 0 0 0 0 0 0 0 0 0 0 0 0 0 0
0 0 0 0 0 0 0 0 0 0 0 0 0 0 0 0 0 0 0 0 0 0 0 0 0 0 0 0 0 0 0 0 0 0 0 0 0 0 0 0 0 0 0
0 0 0 0 0 0 0 0 0 0 0 0 0 0 0 0 0 0 0 0 0 0 0 0 0 0 0 0 0 0 0 0 0 0 0 0 0 0 0 0 0 0 0
Wind_Speed
2 2 2 2 2 2 2 3 3 4 5 5 6 6 5 6 6 6 5 12 13 12 12 12 11 11 10 10 10 10 9 9 9 10 9 8 8 8 8 8 7 6 6
2 2 2 2 2 2 2 2 3 3 4 4 5 5 5 5 5 6 5 7 12 13 13 12 12 12 11 11 10 10 10 9 9 9 9 9 8 8 8 8 8 7 7
3 3 2 2 2 2 2 3 4 3 3 4 4 5 5 5 4 5 5 4 5 10 13 13 13 13 13 12 12 11 10 10 9 9 9 9 9 9 8 8 8 8 8
5 4 3 2 2 3 2 2 2 3 3 3 3 3 4 3 4 4 4 4 3 4 8 12 13 13 13 13 13 12 11 10 10 9 9 9 10 9 9 9 9 8 8
5 4 3 3 3 3 3 3 3 2 3 2 2 3 3 3 4 5 5 5 5 4 4 7 12 13 13 13 13 13 12 11 10 10 10 10 10 10 9 9 8 7 7
5 4 3 5 5 4 3 3 3 3 2 2 3 3 3 3 3 4 4 4 4 5 5 5 4 7 13 13 13 13 13 12 11 11 11 11 10 10 9 8 8 7 7
4 3 3 4 4 3 3 3 3 2 1 2 2 2 3 3 4 3 3 3 4 4 5 5 3 3 5 11 13 14 14 13 13 12 12 11 11 10 9 8 7 7 6
4 3 3 3 3 3 4 4 3 2 2 1 1 2 1 2 3 3 3 3 4 4 4 6 5 5 4 3 8 13 13 12 12 12 12 11 10 10 10 9 8 7 7
4 4 4 3 3 2 2 2 2 2 1 2 2 1 2 1 1 2 3 3 3 3 3 4 6 6 6 5 4 9 12 12 12 12 12 11 11 11 10 9 8 7 7
3 3 3 3 3 3 3 2 2 2 2 2 2 2 2 2 2 1 2 2 3 4 4 5 5 5 5 4 6 10 11 11 12 12 12 11 11 10 10 10 9 9 8
3 3 3 3 3 3 3 3 4 4 2 2 2 1 2 2 1 2 1 1 2 2 3 4 3 3 4 4 4 7 10 10 11 12 12 12 12 11 10 9 9 8 8
2 2 3 3 3 3 3 3 3 3 3 3 3 2 2 1 1 1 2 1 2 1 2 3 2 2 3 3 6 8 9 10 10 11 11 11 12 11 10 10 9 9 8
1 2 2 2 2 2 3 2 2 2 2 3 3 2 2 2 1 1 2 1 1 1 2 2 1 2 2 2 3 7 7 9 9 10 11 11 11 11 11 11 11 11 10
2 2 2 2 2 2 2 2 2 2 2 3 3 3 3 3 2 2 2 2 1 1 1 1 1 2 2 2 3 4 4 7 8 9 10 10 10 10 11 11 11 11 11
2 2 2 2 2 2 2 2 2 2 3 2 2 3 2 2 2 2 2 2 2 1 1 0 1 1 1 2 2 2 2 4 6 6 8 8 9 9 10 10 10 11 11
2 1 2 2 2 2 2 2 2 2 2 1 2 3 2 1 1 2 2 2 2 2 1 0 1 1 1 1 2 1 2 4 4 4 5 6 7 8 8 9 9 9 9
1 1 1 2 2 2 3 2 1 1 2 1 2 3 2 2 2 2 2 2 2 2 2 0 1 1 2 1 1 0 1 2 1 2 2 3 4 5 6 7 7 8 8
2 2 1 2 2 2 2 2 2 1 1 2 2 2 2 1 1 1 1 1 1 1 2 1 1 1 1 0 0 0 0 1 1 1 2 1 2 3 4 4 5 6 7
2 1 2 2 2 1 1 1 1 1 1 1 1 1 1 1 1 1 1 1 1 1 1 1 0 0 1 1 1 1 1 1 1 1 2 1 0 1 2 2 3 4 5
1 1 2 2 2 2 1 1 1 1 1 1 1 1 1 2 1 1 1 1 1 1 1 0 0 0 1 1 1 1 1 1 1 1 1 1 2 2 2 1 2 2 3
1 1 2 2 2 2 1 1 1 0 0 0 1 1 2 3 3 2 2 2 2 1 1 1 0 1 1 1 1 1 1 1 2 1 1 1 1 1 2 2 2 2 2
1 1 2 2 2 1 2 2 2 2 1 0 0 1 2 2 2 2 2 2 2 1 0 1 1 0 1 1 1 1 1 1 3 2 1 2 1 2 2 2 3 3 3
2 1 1 2 2 2 2 1 0 1 1 1 1 0 0 1 2 1 1 1 1 1 1 1 1 2 2 2 1 2 2 1 3 3 1 3 2 2 2 3 4 4 5
2 2 2 2 2 2 3 2 1 1 1 1 1 1 0 1 1 1 1 1 1 1 2 1 2 2 2 2 1 2 3 3 3 2 0 2 3 3 3 2 5 5 5
2 3 2 3 3 3 4 3 2 1 1 1 1 1 1 1 1 2 1 1 1 2 3 3 4 3 4 4 2 1 2 2 3 3 1 1 3 3 3 3 4 7 7
3 3 2 3 3 3 4 5 4 1 2 2 1 1 1 1 1 1 0 1 2 3 2 3 3 4 4 4 5 3 2 2 2 3 2 1 2 2 4 3 2 3 4
Wind_Direction
30 24 62 40 36 42 29 24 41 51 46 46 53 52 57 75 77 82 71 66 63 63 67 70 70 68 65 62 58 54 50 50 51 53 54 56 55 53 55 53 59 65 68
38 24 59 49 47 47 41 47 63 60 57 56 56 48 49 62 79 93 93 73 67 64 63 65 66 63 62 60 57 54 49 49 49 52 54 56 57 56 57 56 59 60 63
48 35 37 38 27 41 50 48 51 55 69 69 64 55 48 47 61 81 92 93 80 67 65 63 64 61 59 57 55 53 49 49 50 51 54 55 54 53 54 56 58 58 58
53 38 28 23 33 34 48 66 60 58 59 57 60 57 58 45 52 66 79 83 83 81 69 68 65 62 59 57 54 52 50 50 52 52 53 55 54 53 54 55 56 56 55
43 51 24 16 35 31 25 54 61 73 72 69 79 72 63 54 44 54 57 68 74 81 82 76 67 61 58 55 52 50 47 47 52 55 57 56 54 51 49 51 53 54 55
34 33 39 35 31 32 27 48 60 66 76 71 77 80 77 78 61 44 44 49 61 71 76 76 71 62 58 53 49 46 45 47 53 56 57 54 51 48 46 47 48 52 56
33 39 42 44 40 37 28 42 51 65 69 88 86 69 48 62 82 64 50 49 52 56 68 70 67 65 58 51 46 44 42 49 52 53 54 52 49 46 43 43 45 51 57
29 35 52 64 59 48 34 38 42 37 18 47 87 113 95 33 34 68 66 57 56 50 58 66 65 66 64 57 46 43 39 43 48 50 50 49 47 44 39 37 46 53 57
29 20 42 58 54 63 59 46 41 55 22 359 48 84 108 125 93 28 71 69 63 57 54 60 61 59 61 56 44 37 39 38 42 46 45 44 42 41 37 39 49 54 57
51 21 34 48 54 55 55 34 45 45 41 8 360 26 75 113 123 109 31 53 66 63 55 56 55 59 60 59 50 41 40 38 38 40 39 39 39 39 38 41 49 55 56
56 41 38 45 53 59 58 51 45 35 38 30 19 18 23 31 52 118 122 93 60 63 72 66 60 58 60 59 55 41 41 39 38 37 36 36 36 38 40 42 46 49 50
63 55 51 52 56 57 54 52 59 52 39 25 26 38 45 48 33 80 114 125 117 101 89 78 70 68 71 63 55 47 43 41 39 37 35 34 35 35 35 37 39 40 41
87 73 65 62 65 71 66 58 61 64 63 49 41 27 30 34 38 61 96 112 109 131 108 85 86 84 82 82 65 51 46 45 42 39 36 35 35 33 32 32 33 33 32
97 94 86 85 67 69 77 57 60 50 65 66 60 50 40 21 27 41 74 97 83 53 84 108 87 91 92 93 81 71 55 49 46 42 40 39 38 36 34 31 29 29 27
107 111 119 115 104 84 82 79 78 67 64 59 66 71 63 31 28 24 38 76 115 105 21 47 76 76 104 105 89 96 88 62 55 50 45 41 38 37 35 32 30 27 25
104 146 141 130 127 114 92 67 70 74 90 79 81 73 62 49 27 36 36 32 62 112 113 344 98 133 101 105 105 112 115 96 66 58 51 43 38 34 32 29 27 25 25
151 156 136 132 126 126 124 114 109 89 102 104 101 99 89 69 45 32 36 44 44 80 115 325 35 89 86 66 60 175 158 145 100 76 70 47 35 29 27 25 23 23 23
166 170 148 119 116 113 120 132 138 117 97 78 68 85 92 90 77 45 39 51 57 86 120 129 338 22 53 98 41 321 0 121 151 147 142 87 44 25 21 21 18 18 18
173 169 133 119 119 109 104 111 124 129 116 103 85 74 68 82 84 73 70 43 28 41 94 137 217 347 352 350 11 341 345 325 287 185 183 188 254 2 12 16 13 12 9
160 147 126 122 114 104 90 80 84 82 92 105 104 93 69 73 65 49 56 18 27 23 14 74 129 331 318 311 40 335 325 307 298 318 294 201 222 235 263 297 335 341 350
151 144 122 113 107 103 66 44 22 59 83 147 147 125 110 102 87 76 64 29 28 26 2 13 350 356 333 354 316 283 293 297 298 292 288 250 225 234 244 265 275 290 296
147 139 135 130 126 104 84 68 38 346 322 287 205 155 144 126 126 116 100 81 70 79 26 8 332 294 289 292 300 314 319 337 309 309 317 289 255 248 234 226 236 242 254
145 137 135 133 138 132 123 114 54 335 320 317 318 292 209 137 133 150 190 213 281 300 229 201 234 258 267 284 312 320 305 284 260 269 314 287 286 275 260 243 228 235 251
170 174 175 172 157 150 151 148 176 264 310 326 313 286 151 96 81 101 141 206 224 255 247 228 225 253 264 272 262 263 262 278 282 284 262 275 286 275 274 254 241 243 252
183 180 186 187 178 177 176 172 164 219 265 283 310 350 54 97 36 56 42 312 296 279 259 243 234 252 270 283 286 321 313 306 294 282 256 250 282 292 281 263 255 252 253
191 182 192 194 189 185 178 175 175 190 237 245 245 230 95 107 94 64 349 301 289 284 289 287 282 280 271 268 264 235 228 253 278 287 275 258 285 313 304 281 264 258 258